Regional Weather Roundup
Issued by NWS

Home | Current Version | Previous Version | Text Only | Print | Product List | Glossary On
Versions: 1 2 3 4 5 6 7 8 9 10 11 12 13 14 15 16 17 18 19 20 21 22 23 24 25 26 27 28 29 30 31 32 33 34 35 36 37 38 39 40 41 42 43 44 45 46 47 48 49 50
000
ASUS43 KDTX 050610
RWRMI
MICHIGAN HOURLY REGIONAL WEATHER ROUNDUP
NATIONAL WEATHER SERVICE DETROIT/PONTIAC MI
200 AM EDT TUE MAY 05 2015

NOTE: "FAIR" INDICATES FEW OR NO CLOUDS BELOW 12,000 FEET WITH NO
SIGNIFICANT WEATHER AND/OR OBSTRUCTION TO VISIBILITY.

MIZ047>049-052>055-059>063-066>070-074>076-081>083-050700-
SOUTHEAST LOWER MICHIGAN

CITY           SKY/WX    TMP DP  RH WIND       PRES   REMARKS
ADRIAN         CLEAR     57  55  93 CALM      30.19S
6HR MIN TEMP:  57; 6HR MAX TEMP:  71;

ALMA           CLEAR     53  39  59 N6        30.24S
ANN ARBOR      CLEAR     63  56  78 NE10      30.20R
BAD AXE        MOCLDY    47  36  65 NE5       30.26R
CARO           PTCLDY    50  42  73 CALM      30.23S
DETROIT CITY   CLOUDY    59  43  55 NE10      30.20S
6HR MIN TEMP:  58; 6HR MAX TEMP:  74;

DETROIT        CLOUDY    62  53  72 NE13      30.20R
6HR MIN TEMP:  62; 6HR MAX TEMP:  75;

FLINT          CLOUDY    60  41  49 E8        30.23R
6HR MIN TEMP:  60; 6HR MAX TEMP:  72;

GROSSE ILE     MOCLDY    59  57  94 NE14      30.17R
HILLSDALE      CLEAR     57  56  95 CALM      30.20R
HOWELL         CLEAR     58  47  67 NE6       30.21R

CITY           SKY/WX    TMP DP  RH WIND       PRES   REMARKS
JACKSON        PTCLDY    58  52  80 N3        30.20R
6HR MIN TEMP:  56; 6HR MAX TEMP:  72;

LAMBERTVILLE     N/A     59  55  88 CALM      30.18S FOG
LANSING        CLEAR     56  39  53 N6        30.22R
6HR MIN TEMP:  56; 6HR MAX TEMP:  72;

LAPEER         CLOUDY    55  37  51 CALM      30.24R
MASON          CLEAR     57  40  53 N5        30.21S
MONROE         PTCLDY    61  59  94 CALM      30.16S FOG
PONTIAC        CLEAR     57  41  55 NE7       30.22R
6HR MIN TEMP:  56; 6HR MAX TEMP:  71;

PORT HOPE        N/A     46  36  68 N3        30.24R
6HR MIN TEMP:  46; 6HR MAX TEMP:  53;

PORT HURON     PTCLDY    48  43  81 N3        30.23S
TRI CITIES     CLEAR     52  44  74 N3        30.24S
6HR MIN TEMP:  51; 6HR MAX TEMP:  71;

MIDLAND        FAIR      46  40  78 CALM      30.24R
TROY           CLEAR     59  39  48 NE10      30.24R
SAGINAW HB     CLEAR     52  43  71 NE3       30.23S
$$
MIZ043>046-050>051-056>058-064>065-071>073-077>080-050700-
SOUTHWEST LOWER MICHIGAN

CITY           SKY/WX    TMP DP  RH WIND       PRES   REMARKS
BATTLE CREEK   CLEAR     56  51  84 NE7       30.21S
6HR MIN TEMP:  56; 6HR MAX TEMP:  69;

BENTON HARBOR  PTCLDY    50  48  93 NE3       30.18S
6HR MIN TEMP:  49; 6HR MAX TEMP:  60;

BIG RAPIDS     CLEAR     48  37  65 CALM      30.24S
6HR MIN TEMP:  46; 6HR MAX TEMP:  65;

COLDWATER      PTCLDY    54  53  97 CALM      30.20R
6HR MIN TEMP:  53; 6HR MAX TEMP:  68;

FREMONT        FAIR      52  32  46 E5        30.22R
HOLLAND        PTCLDY    52  43  71 NE3       30.21S
6HR MIN TEMP:  49; 6HR MAX TEMP:  61;

GRAND RAPIDS   CLEAR     56  37  49 NE7       30.21F
6HR MIN TEMP:  56; 6HR MAX TEMP:  69;

IONIA          FAIR      56  37  49 NE7       30.21F
KALAMAZOO      PTCLDY    59  51  75 N6        30.20S
6HR MIN TEMP:  56; 6HR MAX TEMP:  69;

LUDINGTON      PTCLDY    51  37  57 CALM      30.23R
6HR MIN TEMP:  51; 6HR MAX TEMP:  66;

MARSHALL       CLEAR     55  49  81 CALM      30.20S
MOUNT PLEASANT CLEAR     48  42  79 CALM      30.23F
6HR MIN TEMP:  48; 6HR MAX TEMP:  67;

MUSKEGON       PTCLDY    56  34  43 E6        30.22R
6HR MIN TEMP:  56; 6HR MAX TEMP:  66;

SOUTH HAVEN    PTCLDY    51  47  86 E5        30.19S
$$
MIZ016>042-050700-
NORTHERN LOWER MICHIGAN

CITY           SKY/WX    TMP DP  RH WIND       PRES   REMARKS
ALPENA         PTCLDY    44  36  73 NW6       30.26S
6HR MIN TEMP:  44; 6HR MAX TEMP:  63;

BEAVER ISLAND  PTCLDY    34  33  96 CALM      30.29R
6HR MIN TEMP:  34; 6HR MAX TEMP:  52;

BELLAIRE       PTCLDY    37  35  93 CALM      30.28R
6HR MIN TEMP:  36; 6HR MAX TEMP:  59;

CADILLAC       PTCLDY    47  33  58 CALM      30.23S
CHARLEVOIX     PTCLDY    43  35  73 CALM      30.31R
6HR MIN TEMP:  42; 6HR MAX TEMP:  54;

FRANKFORT      CLOUDY    51  31  46 NE5       30.26R
GAYLORD        PTCLDY    45  33  63 N3        30.27R
6HR MIN TEMP:  43; 6HR MAX TEMP:  58;

GRAYLING       CLEAR     33  31  92 CALM      30.27R
6HR MIN TEMP:  33; 6HR MAX TEMP:  59;

HARBOR SPRINGS PTCLDY    38  34  85 CALM      30.28S
HOUGHTON LAKE  CLEAR     44  31  60 E6        30.25R
6HR MIN TEMP:  43; 6HR MAX TEMP:  61;

MANISTEE       MOCLDY    48  34  57 E5        30.25S
OSCODA         CLEAR     45  36  71 CALM      30.23R
PELLSTON       PTCLDY    34  31  88 CALM      30.29R
6HR MIN TEMP:  32; 6HR MAX TEMP:  59;

ROGERS CITY    PTCLDY    44  37  75 W3        30.28S
TRAVERSE CITY  PTCLDY    39  35  86 CALM      30.26R
6HR MIN TEMP:  38; 6HR MAX TEMP:  54;

$$
MIZ007>008-015-050700-
EASTERN UPPER MICHIGAN

CITY           SKY/WX    TMP DP  RH WIND       PRES   REMARKS
KINROSS        CLEAR     37  37 100 W7        30.27R WCI  32
6HR MIN TEMP:  37; 6HR MAX TEMP:  50;

MACKINAC ISLAN PTCLDY    41  34  77 NW5       30.28R
6HR MIN TEMP:  41; 6HR MAX TEMP:  55;

NEWBERRY       CLEAR     36  35  94 NW6       30.27S WCI  31
6HR MIN TEMP:  36; 6HR MAX TEMP:  53;

S. S. MARIE    CLEAR     44  34  67 NW3       30.25S
6HR MIN TEMP:  43; 6HR MAX TEMP:  46;

MUNISING         N/A     37  32  82 S10       30.27R WCI  30
6HR MIN TEMP:  37; 6HR MAX TEMP:  51;

$$
MIZ004>006-011>014-085-050700-
CENTRAL UPPER MICHIGAN

CITY           SKY/WX    TMP DP  RH WIND       PRES   REMARKS
MANISTIQUE     CLEAR     40  36  87 SW8       30.29R WCI  34
6HR MIN TEMP:  35; 6HR MAX TEMP:  56;

ESCANABA       CLEAR     39  36  87 CALM      30.28S
6HR MIN TEMP:  37; 6HR MAX TEMP:  59;

MENOMINEE      MOCLDY    45  34  65 CALM      30.28S
6HR MIN TEMP:  45; 6HR MAX TEMP:  57;

SAWYER-GWINN   CLEAR     38  32  79 CALM      30.28S
$$
MIZ001>003-009>011-084-050700-
WESTERN UPPER MICHIGAN

CITY           SKY/WX    TMP DP  RH WIND       PRES   REMARKS
IRON MOUNTAIN  CLEAR     41  36  82 CALM      30.27S
6HR MIN TEMP:  40; 6HR MAX TEMP:  65;

HOUGHTON       CLEAR     40  33  76 NW3       30.25R
6HR MIN TEMP:  39; 6HR MAX TEMP:  60;

COPPER HARBOR    N/A     45  34  65 SW5       30.24S
6HR MIN TEMP:  41; 6HR MAX TEMP:  53;

IRONWOOD       CLEAR     37  34  87 E3        30.24S
6HR MIN TEMP:  36; 6HR MAX TEMP:  61;

$$

ABBREVIATIONS USED IN REMARKS
   TC - TEMPERATURE IN CELSIUS
  WCI - WIND CHILL INDEX
   HX - HEAT INDEX
  VSB - VISIBILITY




USA.gov is the U.S. government's official web portal to all federal, state and local government web resources and services.